Location: Eyeline Observatory
(43.2182°N, 78.8632°W)
Time: 00:39:07
(UTC-04:00)

Tiangong 1 - Pass Details

Date: 09 October 2017
Orbit: 293 x 320 km, 42.8° (Epoch: 20 October)

Event Time Altitude Azimuth Distance (km) Brightness Sun altitude
Rises 20:43:16 0° 273° (W) 2,033 6.2 -22.8°
Reaches altitude 10° 20:45:15 10° 272° (W) 1,198 4.6 -23.1°
Enters shadow 20:46:18 21° 270° (W) 772 3.4 -23.3°
